Regional Weather Roundup
Issued by NWS

Home | Current Version | Previous Version | Text Only | Print | Product List | Glossary Off
Versions: 1 2 3 4 5 6 7 8 9 10 11 12 13 14 15 16 17 18 19 20 21 22 23 24 25 26 27 28 29 30 31 32 33 34 35 36 37 38 39 40 41 42 43 44 45 46 47 48 49 50

000
ASUS43 KDMX 222001
RWRIA

WEATHER ROUNDUP FOR IOWA
NATIONAL WEATHER SERVICE DES MOINES IA
300 PM CDT SUN APR 22 2018

NOTE: "FAIR" INDICATES FEW OR NO CLOUDS BELOW 12,000 FEET WITH NO
SIGNIFICANT WEATHER AND/OR OBSTRUCTIONS TO VISIBILITY.

* - THESE STATIONS ARE NOT NWS STATIONS...THUS NOT UNDER NWS
QUALITY CONTROL.  THEY ALSO DO NOT REPORT WEATHER SUCH
AS PRECIPITATION OR FOG.

IAZ001>003-012>014-020>022-031>034-043>046-222100-
   NORTHWEST IOWA

CITY           SKY/WX    TMP DP  RH WIND       PRES   REMARKS
CARROLL *      PTSUNNY   66  28  24 NE14G21   30.21S
DENISON *      SUNNY     63  30  29 E12       30.21F
LE MARS *      SUNNY     63  34  34 E13G18    30.23F
ORANGE CITY *  SUNNY     63  39  42 E10G17    30.24F
SHELDON *      SUNNY     59  37  44 E10G18    30.24F
SIOUX CITY     SUNNY     66  30  26 E13G18    30.21F
SPENCER        SUNNY     57  38  48 E13       30.27F
STORM LAKE *   SUNNY     61  37  41 NE14G22   30.23F
$$

IAZ055>058-069>071-079>083-090>094-222100-
   SOUTHWEST IOWA

CITY           SKY/WX    TMP DP  RH WIND       PRES   REMARKS
ATLANTIC *     CLOUDY    66  32  28 E12       30.17F
AUDUBON *      MOSUNNY   66  25  20 E5        30.20F
CLARINDA *     CLOUDY    70  32  24 E10G17    30.16F
COUNCIL BLFS * CLOUDY    66  34  30 NE14      30.17F
CRESTON *      SUNNY     68  32  26 E15       30.16F
HARLAN  *      CLOUDY    66  30  26 NE12      30.22S
LAMONI         CLOUDY    67  37  33 E10       30.14F
RED OAK *      CLOUDY    70  34  26 NE12G20   30.15F
SHENANDOAH *   PTSUNNY   70  32  24 NE13G18   30.14F
$$

IAZ047>049-059>061-072>074-084-222100-
   CENTRAL IOWA

CITY           SKY/WX    TMP DP  RH WIND       PRES   REMARKS
AMES           CLOUDY    66  26  22 NE15      30.21F
ANKENY *       CLOUDY    68  27  21 NE10G17   30.19F
BOONE *        MOSUNNY   66  25  20 MISG      30.20F
CHARITON *     MOSUNNY   68  34  28 E15G22    30.15F
DES MOINES     PTSUNNY   69  28  21 E12G18    30.18F
GRINNELL*      MOSUNNY   66  22  18 NE15G24   30.21F
KNOXVILLE *    SUNNY     68  27  21 E12G18    30.16F
MARSHALLTOWN   MOSUNNY   67  25  20 E16       30.21F
NEWTON *       MOSUNNY   66  27  22 E16       30.19F
PELLA *        SUNNY     69  25  19 E10G17    30.19F
$$

IAZ004>006-015-016-023>025-035-036-222100-
   NORTH CENTRAL IOWA

CITY           SKY/WX    TMP DP  RH WIND       PRES   REMARKS
ALGONA *       SUNNY     57  43  58 NE13      30.27F
CLARION *      SUNNY     64  34  32 E14G21    30.24F
ESTHERVILLE    SUNNY     45  37  73 NE8       30.28F
FORT DODGE *   SUNNY     63  34  33 E13G22    30.24F
MASON CITY     SUNNY     59  39  47 E10G18    30.28F
FOREST CITY *  FAIR      57  41  54 NE8       30.27F
IOWA FALLS *   FAIR      65  31  28 NE12G21   30.24F
$$

IAZ007>011-017>019-026>030-037>042-050>054-066-222100-
   NORTHEAST IOWA

CITY           SKY/WX    TMP DP  RH WIND       PRES   REMARKS
CEDAR RAPIDS   FAIR      68  27  21 E17G24    30.21F
CHARLES CITY * FAIR      61  32  33 NE10G21   30.27F
CLINTON *      FAIR      66  30  26 E18       30.22F
DECORAH *      FAIR      61  30  31 E12G17    30.27F
DUBUQUE        FAIR      64  31  28 E14       30.25F
MONTICELLO *   FAIR      66  28  24 E15G22    30.22F
OELWEIN *      FAIR      63  32  31 E14G22    30.26F
WATERLOO       FAIR      65  32  29 E16G23    30.24F
$$

IAZ064-065-067-068-078-222100-
   EAST CENTRAL IOWA

CITY           SKY/WX    TMP DP  RH WIND       PRES   REMARKS
DAVENPORT      FAIR      66  26  22 E15       30.23F
IOWA CITY      FAIR      67  19  16 E13G22    30.22F
MT. PLEASANT * SUNNY     70  27  19 E14G21    30.16F
MUSCATINE *    FAIR      68  14  12 E14G21    30.20F
QUAD CITIES    FAIR      66  26  22 E16       30.20F
$$

IAZ062-063-075>077-085>089-095>099-222100-
   SOUTHEAST IOWA

CITY           SKY/WX    TMP DP  RH WIND       PRES   REMARKS
BURLINGTON     CLOUDY    69  30  23 E15       30.15F
FAIRFIELD *    SUNNY     70  28  21 E17G24    30.16F
FORT MADISON * CLOUDY    70  34  26 E13G23    30.16S
KEOKUK *       CLOUDY    66  37  34 E16       30.14S
OSKALOOSA *    FAIR      70  27  20 E17G23    30.17F
CENTERVILLE *    N/A     68  36  30 E12       30.16F
OTTUMWA        SUNNY     70  30  22 E15G23    30.16F
WASHINGTON *   SUNNY     70  23  17 E16G22    30.19F
$$

ABBREVIATIONS USED IN REMARKS
   TC - TEMPERATURES IN CELSIUS
  WCI - WIND CHILL INDEX
   HX - HEAT INDEX
  VSB - VISIBILITY
$$





USA.gov is the U.S. government's official web portal to all federal, state and local government web resources and services.